Location: Fraysse
(44.7616°N, 2.6518°E)
Time: 01:14:33
(UTC+00:00)

Daily predictions for brighter satellites

Satellite Brightness Start Highest point End
(mag) Time Altitude Azimuth Time Altitude Azimuth Time Altitude Azimuth
ACS3 Solar Sail 4.3 02:02:34 10° NE 02:03:45 14° NE 02:03:45 14° NE
Cosmos 2219 Rocket 4.1 02:55:06 25° NE 02:55:06 25° NE 02:57:35 10° NE
USA 267 3.5 03:14:56 10° NE 03:20:18 63° NE 03:20:18 63° NE
Cosmos 2278 Rocket 4.3 03:29:48 13° N 03:33:25 22° NE 03:37:45 10° E
Cosmos 2333 Rocket 4.0 03:39:30 21° N 03:39:30 21° N 03:41:34 10° NNE
COSMOS 2455 4.0 03:45:06 33° N 03:45:06 33° N 03:48:37 10° NNE
ACS3 Solar Sail 2.7 03:44:32 10° N 03:47:53 34° N 03:47:53 34° N
BlueWalker 3 4.2 03:53:51 22° E 03:53:51 22° E 03:55:25 10° E
Cosmos 2360 Rocket 3.6 03:59:09 26° N 03:59:09 26° N 04:01:54 10° NNE
Cosmos 2322 Rocket 3.7 03:59:32 23° N 03:59:32 23° N 04:02:02 10° NNE
USA 234 3.1 03:51:00 10° SE 03:57:34 89° NE 03:58:53 61° NW
Gbstr 26 Del rocket 3.6 03:59:16 62° SE 03:59:16 62° SE 04:04:33 10° ENE
SL-16 R/B 4.2 04:06:02 15° N 04:06:02 15° N 04:07:29 10° N
Cosmos 44 Rocket 4.1 04:05:02 41° N 04:06:21 52° NE 04:11:23 10° SE
Meteor 2-14 Rocket 4.4 04:04:27 10° S 04:10:34 84° E 04:16:41 10° N
Cosmos 1943 Rocket 3.4 04:06:17 13° N 04:10:45 38° NE 04:15:52 10° SE
ARGOS 3.0 04:10:54 10° N 04:16:17 68° WNW 04:16:17 68° WNW
PAYLOAD A 4.0 04:11:42 10° NNE 04:17:08 88° WNW 04:20:30 24° SSW
Cosmos 1140 Rocket 3.8 04:15:56 23° N 04:19:05 64° ENE 04:24:07 10° SSE
Timation 2 Rocket 4.5 04:14:48 13° NNW 04:20:50 63° ENE 04:27:10 10° SE
CZ-2C R/B 2.3 04:16:38 10° N 04:21:33 67° WNW 04:21:33 67° WNW
Cosmos 1809 Rocket 4.3 04:16:23 10° SSW 04:22:30 77° W 04:28:37 10° N
ADEOS Rocket 3.9 04:20:42 10° N 04:25:40 35° NW 04:25:40 35° NW
NOSS 3-1 (C) 2.7 04:27:24 62° WSW 04:28:12 79° NW 04:33:47 10° NE
Iridium 4 Rocket 4.2 04:28:33 10° N 04:32:41 42° E 04:36:37 10° SSE
SJ 16-02 4.2 04:30:50 10° NNE 04:32:43 13° NE 04:34:36 10° E
Cosmos 2100 Rocket 3.8 04:27:01 10° N 04:33:12 82° W 04:39:21 10° S
Cosmos 2219 Rocket 2.9 04:36:50 33° NW 04:36:50 33° NW 04:41:26 10° N
IRS-1D 3.9 04:36:44 10° NNE 04:41:41 63° ESE 04:46:32 10° S
NOSS 0 Rocket 4.1 04:36:25 10° SSW 04:42:31 71° ESE 04:48:39 10° NNE
COSMOS 2428 2.6 04:41:30 17° SW 04:45:59 72° WNW 04:51:42 10° NNE
USA 59 Rocket 0.5 04:50:47 29° N 04:50:47 29° N 04:52:37 10° NNE
SL-08 RB Rocket 4.1 04:48:53 10° N 04:53:08 39° WNW 04:53:29 39° W
Cosmos 2322 3.8 04:50:01 23° SW 04:53:30 55° WNW 04:59:05 10° NNE
Cosmos 1459 Rocket 4.0 04:48:07 10° NNW 04:54:25 64° W 05:00:38 10° S
Cosmos 1864 Rocket 4.4 04:49:02 10° N 04:55:20 82° W 05:01:39 10° S
COSMO-SKYMED 1 3.1 04:53:47 10° SSE 04:57:48 55° ENE 05:01:50 10° N
Meteor 2-21 4.5 04:52:14 10° SSW 04:58:11 55° WNW 05:04:10 10° N
FengYun 1-2 T 4.1 04:52:41 10° N 04:58:15 74° WNW 05:03:49 10° SSW
SKYMED 2 3.6 04:54:44 10° SSE 04:59:03 81° ENE 05:03:26 10° N
Cosmos 1727 Rocket 4.4 04:55:06 10° SW 05:00:49 39° WNW 05:06:38 10° N
Cosmos 407 Rocket 3.6 04:55:55 10° NNW 05:01:02 76° ENE 05:06:08 10° SSE
Cosmos 2228 Rocket 4.3 05:03:28 23° NW 05:03:28 23° NW 05:05:52 10° NNW
USA 267 3.9 04:58:07 10° NE 05:04:06 40° NNW 05:07:39 22° WNW
Cosmos 1725 Rocket 3.9 04:58:32 10° N 05:04:52 77° W 05:11:09 10° S
Cosmos 1980 3.8 05:00:07 10° SSW 05:05:45 77° ESE 05:11:26 10° NNE
NOSS 3-1 (A) 2.8 05:07:42 10° SW 05:12:20 87° WNW 05:17:56 10° NE
Cosmos 1802 Rocket 4.0 05:06:28 10° NNW 05:12:44 61° W 05:18:52 10° S
Cosmos 1269 Rocket 4.5 05:09:27 17° NW 05:13:06 39° WSW 05:17:57 10° S
Cosmos 1328 4.1 05:11:47 10° SW 05:15:08 35° WNW 05:18:32 10° N
Cosmos 2233 Rocket 4.0 05:09:44 10° N 05:16:06 89° E 05:22:23 10° S
Cosmos 1703 Rocket 3.7 05:12:18 10° SSW 05:16:29 47° WNW 05:20:44 10° N
Cosmos 2278 Rocket 2.1 05:12:24 10° NNW 05:18:03 70° WSW 05:23:39 10° SSE
NOSS 2-1 (E) 3.7 05:18:52 27° WNW 05:19:34 29° NW 05:22:23 10° NNE
Cosmos 2251 Rocket 4.0 05:14:33 10° NNW 05:19:53 63° ENE 05:25:11 10° SSE
Meteor 2-16 Rocket 4.4 05:14:46 10° SSW 05:20:46 61° WNW 05:26:51 10° N
CZ-3 R/B 3.9 05:13:03 10° SW 05:21:05 20° S 05:25:25 10° SE
Lacrosse 5 rocket 3.3 05:20:39 10° NNW 05:21:34 11° N 05:22:38 10° NNE
Cosmos 2237 Rocket 2.2 05:16:21 10° SSW 05:22:01 86° WNW 05:27:43 10° NNE
Cosmos 1939 Rocket 3.8 05:19:11 10° NNW 05:22:21 25° WNW 05:23:42 20° W
Cosmos 2173 Rocket 4.5 05:18:08 10° NNW 05:23:32 35° W 05:28:56 10° SSW
Cosmos 2292 Rocket 3.7 05:22:54 10° SSW 05:26:56 57° WNW 05:32:11 10° N
SL-08 R/B 4.4 05:20:54 10° NNW 05:26:57 65° W 05:33:02 10° S
BlueWalker 3 2.4 05:27:40 21° W 05:29:34 38° SW 05:32:56 10° SSE
USA 276 3.0 05:29:39 22° WSW 05:30:32 27° SW 05:32:57 10° SSE
Meteor 1-24 Rocket 4.1 05:26:10 10° SW 05:31:37 41° WNW 05:36:55 10° N
Helios 1A Rocket 2.9 05:29:06 10° S 05:32:16 37° W 05:35:28 10° NNW
ACS3 Solar Sail 3.5 05:30:25 10° NW 05:32:01 12° NW 05:32:01 12° NW
Cosmos 2242 Rocket 4.3 05:28:45 10° S 05:33:00 56° E 05:37:20 10° NNE
Cosmos 2369 Rocket 4.1 05:30:47 10° N 05:35:35 27° NE 05:40:20 10° ESE
CZ-4 R/B 4.2 05:32:19 10° N 05:36:58 44° WNW 05:41:30 10° SW
Cosmos 1782 Rocket 3.7 05:34:54 10° NNW 05:39:09 50° W 05:43:21 10° SSW
USA 234 4.3 05:35:38 10° S 05:41:04 28° SW 05:46:14 11° WNW
Cosmos 2123 Rocket 4.5 05:36:43 10° SW 05:42:21 35° WNW 05:48:00 10° N
Meteor 2-5 Rocket 4.3 05:37:21 10° SW 05:42:49 38° WNW 05:48:17 10° N
Cosmos 1420 Rocket 4.0 05:38:54 10° SSW 05:44:09 78° WNW 05:49:29 10° NNE
Gbstr 26 Del rocket 4.0 05:41:19 13° W 05:45:46 50° NNW 05:51:51 10° ENE
NOAA 12 4.4 05:41:13 10° N 05:46:16 45° WNW 05:51:17 10° SW
CENTAUR R/B 4.2 05:41:23 10° NNW 05:48:59 43° NE 05:57:41 10° ESE
ARIANE 5 R/B 4.3 05:47:09 10° NNE 05:51:50 37° E 05:56:32 10° SSE
Cosmos 1943 Rocket 2.8 05:49:28 10° NW 05:54:23 34° WSW 05:59:16 10° SSW
Cosmos 1812 2.3 05:55:12 10° N 05:58:07 68° E 06:01:01 10° SSE
CZ-2C R/B 4.3 05:58:17 10° NW 05:58:45 10° NW 05:59:13 10° WNW
Cosmos 1300 Rocket 4.5 05:55:51 10° NNW 05:59:30 27° W 06:03:07 10° SSW
SMAP 3.9 05:56:05 10° NNE 06:00:41 57° E 06:05:15 10° S
Cosmos 2346 Rocket 4.5 05:54:51 10° SSW 06:00:56 62° W 06:07:01 10° N
CZ-2D R/B 4.1 06:00:14 10° NNE 06:03:18 44° E 06:06:21 10° S
SJ 16-02 1.3 06:07:08 10° NNW 06:11:26 78° WSW 06:15:42 10° SSE
